�N����,����,�~����,�C��,���x,�C��,����,���ϕ���,�ő�u�ԕ���,�ő厞����,���˗�,�I�_���x,�n�����x,�ő啗���N��,DTYPE
"18/10/24","00:10",0.0,15.6,96.5,1012.3,296.0,0.8,1.7,333.3,0.00,15.1,17.6,"00:09:52",1
"18/10/24","00:20",0.0,15.6,96.5,1012.3,301.6,0.6,1.6,326.2,0.00,15.1,17.4,"00:11:28",1
"18/10/24","00:30",0.2,15.6,96.6,1012.1,314.1,1.0,1.4,322.7,0.00,15.1,17.6,"00:27:10",1
"18/10/24","00:40",0.0,15.6,96.7,1012.3,321.4,0.7,1.0,317.2,0.00,15.1,17.4,"00:35:30",1
"18/10/24","00:50",0.0,15.6,96.7,1012.1,309.1,0.6,1.2,322.9,0.00,15.1,17.4,"00:44:00",1
"18/10/24","01:00",0.0,15.5,96.8,1012.6,136.2,0.2,1.1,304.1,0.00,15.0,17.5,"00:59:52",1
"18/10/24","01:10",0.0,15.6,96.9,1012.3,312.8,0.7,1.3,322.8,0.00,15.1,17.5,"01:00:24",1
"18/10/24","01:20",0.0,15.5,97.0,1011.9,325.4,0.5,1.1,322.8,0.00,15.1,17.4,"01:19:28",1
"18/10/24","01:30",0.0,15.5,97.1,1012.1,332.4,0.5,1.1,315.3,0.00,15.1,17.6,"01:20:02",1
"18/10/24","01:40",0.0,15.6,97.0,1012.3,313.3,0.7,1.3,322.2,0.00,15.2,17.5,"01:31:20",1
"18/10/24","01:50",0.0,15.6,97.2,1012.1,320.3,1.1,1.8,315.7,0.00,15.2,17.2,"01:44:38",1
"18/10/24","02:00",0.2,15.5,97.2,1011.9,276.2,0.2,1.1,318.4,0.00,15.1,17.5,"01:50:16",1
"18/10/24","02:10",0.0,15.5,97.3,1011.9,283.6,0.7,1.0,303.0,0.00,15.1,17.4,"02:05:28",1
"18/10/24","02:20",0.0,15.6,97.3,1012.1,297.4,0.7,1.7,280.9,0.00,15.2,17.2,"02:13:28",1
"18/10/24","02:30",0.2,15.6,97.4,1012.1,326.0,0.6,0.9,308.8,0.00,15.2,17.4,"02:20:16",1
"18/10/24","02:40",0.0,15.6,97.4,1011.6,311.8,0.7,1.1,310.8,0.00,15.2,17.5,"02:38:24",1
"18/10/24","02:50",0.0,15.6,97.5,1011.9,309.2,0.6,0.9,295.4,0.00,15.2,17.2,"02:40:16",1
"18/10/24","03:00",0.2,15.6,97.5,1011.9,317.7,0.8,1.1,320.5,0.00,15.2,17.5,"02:54:24",1
"18/10/24","03:10",0.0,15.6,97.5,1011.9,304.5,0.5,0.8,316.7,0.00,15.2,17.3,"03:00:32",1
"18/10/24","03:20",0.0,15.6,97.6,1011.9,328.3,0.8,1.4,333.4,0.00,15.3,17.3,"03:16:00",1
"18/10/24","03:30",0.2,15.7,97.5,1011.6,62.2,0.5,1.1,334.8,0.00,15.3,17.3,"03:20:40",1
"18/10/24","03:40",0.0,15.6,97.6,1012.1,299.9,0.8,1.6,338.6,0.00,15.3,17.4,"03:31:20",1
"18/10/24","03:50",0.0,15.6,97.6,1011.9,274.7,0.6,1.0,251.7,0.00,15.3,17.2,"03:41:44",1
"18/10/24","04:00",0.0,15.5,97.7,1011.6,277.4,0.8,1.4,267.8,0.00,15.2,17.5,"03:57:36",1
"18/10/24","04:10",0.0,15.5,97.7,1011.4,285.6,0.6,0.9,293.5,0.00,15.2,17.5,"04:06:32",1
"18/10/24","04:20",0.0,15.4,97.7,1011.6,305.1,0.5,1.2,316.5,0.00,15.1,17.2,"04:12:08",1
"18/10/24","04:30",0.0,15.4,97.9,1011.9,309.9,1.0,1.6,323.2,0.00,15.1,17.4,"04:25:04",1
"18/10/24","04:40",0.0,15.5,97.8,1011.9,314.7,0.8,1.2,307.2,0.00,15.2,17.3,"04:31:12",1
"18/10/24","04:50",0.0,15.5,97.9,1011.6,299.7,1.0,1.4,323.6,0.00,15.2,17.4,"04:42:00",1
"18/10/24","05:00",0.0,15.4,97.7,1011.6,289.4,0.7,1.3,320.4,0.00,15.1,17.2,"04:50:02",1
"18/10/24","05:10",0.0,15.3,97.9,1011.4,334.9,0.7,1.4,316.8,0.00,15.0,17.4,"05:00:40",1
"18/10/24","05:20",0.0,15.3,98.0,1011.6,335.5,0.8,1.4,324.4,0.00,15.0,17.4,"05:10:02",1
"18/10/24","05:30",0.0,15.3,97.5,1011.6,298.3,1.1,1.4,316.1,0.00,14.9,17.3,"05:20:40",1
"18/10/24","05:40",0.0,15.3,98.0,1011.9,302.7,1.2,2.6,322.1,0.00,15.0,17.4,"05:35:12",1
"18/10/24","05:50",0.0,15.4,97.4,1011.9,324.3,1.7,3.1,321.3,0.00,15.0,17.3,"05:43:36",1
"18/10/24","06:00",0.0,15.3,97.9,1012.1,330.5,1.8,3.6,327.5,0.00,15.0,17.1,"05:51:36",1
"18/10/24","06:10",0.2,15.3,97.9,1012.6,334.9,1.6,3.3,339.4,0.00,15.0,17.2,"06:09:28",1
"18/10/24","06:20",0.0,15.4,97.9,1011.9,322.3,1.6,3.5,333.1,0.00,15.1,17.3,"06:19:28",1
"18/10/24","06:30",0.0,15.4,97.9,1012.1,312.5,1.3,3.4,339.7,0.00,15.1,17.1,"06:20:24",1
"18/10/24","06:40",0.0,15.4,97.9,1012.1,322.8,1.2,1.8,326.1,0.00,15.1,17.3,"06:34:32",1
"18/10/24","06:50",0.2,15.5,97.9,1011.9,2.1,0.6,1.4,345.8,0.00,15.2,17.3,"06:40:16",1
"18/10/24","07:00",0.0,15.5,97.9,1011.9,22.6,0.7,1.8,345.6,0.00,15.2,17.5,"06:52:16",1
"18/10/24","07:10",0.0,15.6,97.9,1012.1,4.5,0.7,1.7,339.0,0.00,15.3,17.3,"07:00:48",1
"18/10/24","07:20",0.0,15.6,97.8,1012.1,305.6,1.0,2.1,307.7,0.00,15.3,17.2,"07:19:28",1
"18/10/24","07:30",0.0,15.7,97.9,1012.6,2.9,0.8,1.6,344.1,0.00,15.4,17.3,"07:22:56",1
"18/10/24","07:40",0.0,15.8,97.9,1012.6,299.6,0.8,1.3,250.0,0.00,15.5,17.2,"07:30:02",1
"18/10/24","07:50",0.0,15.9,97.9,1012.6,271.6,1.1,1.9,308.7,0.00,15.6,17.1,"07:48:24",1
"18/10/24","08:00",0.0,16.1,97.9,1012.6,305.7,1.0,1.9,331.4,0.04,15.8,17.0,"07:54:24",1
"18/10/24","08:10",0.0,16.4,97.3,1012.8,355.9,0.6,2.1,337.8,0.08,16.0,17.3,"08:01:04",1
"18/10/24","08:20",0.0,16.4,97.2,1013.0,315.5,0.7,1.6,326.1,0.05,16.0,17.4,"08:12:00",1
"18/10/24","08:30",0.0,16.8,97.3,1012.6,331.4,0.6,1.2,315.6,0.12,16.4,17.4,"08:27:04",1
"18/10/24","08:40",0.0,17.2,95.5,1012.8,301.3,1.0,1.8,329.2,0.19,16.5,17.5,"08:36:32",1
"18/10/24","08:50",0.0,18.0,93.3,1012.6,294.9,1.1,1.8,324.8,0.17,16.9,17.7,"08:47:04",1
"18/10/24","09:00",0.0,18.3,90.2,1012.6,296.0,1.1,2.2,323.5,0.23,16.7,17.7,"08:56:40",1
"18/10/24","09:10",0.0,18.6,86.2,1012.8,302.3,1.1,2.7,335.0,0.25,16.3,18.1,"09:02:24",1
"18/10/24","09:20",0.0,18.9,84.1,1013.0,302.9,1.5,3.1,353.6,0.26,16.2,18.1,"09:10:02",1
"18/10/24","09:30",0.0,19.3,83.4,1013.0,325.0,1.3,2.8,334.2,0.29,16.5,18.3,"09:20:08",1
"18/10/24","09:40",0.0,19.6,79.6,1012.6,316.4,1.1,2.6,344.1,0.33,16.0,18.2,"09:32:00",1
"18/10/24","09:50",0.0,20.3,78.6,1012.1,347.0,1.2,3.1,24.0,0.38,16.5,18.6,"09:46:56",1
"18/10/24","10:00",0.0,20.9,75.7,1012.1,22.8,1.2,3.4,93.9,0.40,16.5,18.8,"09:54:24",1
"18/10/24","10:10",0.0,20.4,73.6,1012.1,332.7,1.8,3.7,328.7,0.41,15.6,19.0,"10:08:48",1
"18/10/24","10:20",0.0,20.8,69.2,1011.9,5.0,1.6,3.6,344.7,0.38,15.0,19.1,"10:13:12",1
"18/10/24","10:30",0.0,20.2,70.4,1011.9,332.2,2.0,5.1,351.4,0.22,14.7,19.3,"10:26:00",1
"18/10/24","10:40",0.0,20.2,70.9,1011.9,338.7,1.8,4.8,338.7,0.21,14.8,19.4,"10:37:52",1
"18/10/24","10:50",0.0,20.0,72.2,1011.9,334.8,2.7,6.4,341.3,0.16,14.9,19.4,"10:48:16",1
"18/10/24","11:00",0.0,21.1,66.4,1011.6,354.9,1.8,4.7,346.3,0.37,14.6,19.7,"10:51:36",1
"18/10/24","11:10",0.0,20.6,69.2,1011.6,348.9,1.5,3.5,325.2,0.19,14.8,19.7,"11:06:48",1
"18/10/24","11:20",0.0,21.1,65.2,1011.4,5.5,1.2,3.4,67.4,0.35,14.4,19.9,"11:14:56",1
"18/10/24","11:30",0.0,20.8,65.4,1011.4,358.5,1.2,2.7,1.6,0.18,14.1,20.0,"11:23:44",1
"18/10/24","11:40",0.0,20.7,65.5,1011.4,359.2,2.0,3.9,342.2,0.19,14.0,19.8,"11:33:20",1
"18/10/24","11:50",0.0,20.4,66.2,1011.2,338.3,2.8,6.5,347.3,0.21,13.9,19.9,"11:47:20",1
"18/10/24","12:00",0.0,20.4,67.1,1011.2,338.0,2.2,5.0,342.5,0.12,14.1,19.9,"11:51:28",1
"18/10/24","12:10",0.0,21.1,65.6,1010.9,337.7,1.7,4.2,333.6,0.23,14.5,19.9,"12:03:12",1
"18/10/24","12:20",0.0,21.0,63.2,1010.4,316.9,1.8,7.3,334.8,0.28,13.8,19.9,"12:18:08",1
"18/10/24","12:30",0.0,21.0,63.0,1010.7,340.9,2.7,6.8,332.4,0.21,13.7,20.0,"12:20:48",1
"18/10/24","12:40",0.0,21.4,62.6,1010.4,333.9,1.7,3.4,345.7,0.28,14.0,20.0,"12:37:28",1
"18/10/24","12:50",0.0,21.2,60.7,1010.7,0.0,2.5,4.9,339.5,0.23,13.4,20.2,"12:49:28",1
"18/10/24","13:00",0.0,21.4,60.0,1010.0,345.4,3.1,6.8,357.0,0.37,13.4,20.3,"12:50:48",1
"18/10/24","13:10",0.0,21.8,58.5,1010.0,359.4,2.3,4.7,334.7,0.35,13.3,20.2,"13:03:28",1
"18/10/24","13:20",0.0,21.1,59.9,1009.7,356.0,2.5,5.0,329.6,0.21,13.1,20.4,"13:10:02",1
"18/10/24","13:30",0.0,20.7,60.6,1009.7,343.1,3.0,6.6,330.5,0.11,12.9,20.2,"13:23:20",1
"18/10/24","13:40",0.0,21.1,59.3,1010.0,350.3,2.6,5.0,331.9,0.22,12.9,20.5,"13:38:16",1
"18/10/24","13:50",0.0,21.6,59.3,1009.7,340.6,2.8,5.5,328.9,0.26,13.4,20.2,"13:45:52",1
"18/10/24","14:00",0.0,21.1,57.3,1009.7,346.5,3.0,6.4,342.0,0.26,12.4,20.3,"13:53:44",1
"18/10/24","14:10",0.0,21.7,56.3,1009.3,337.8,2.7,5.7,329.8,0.25,12.7,20.3,"14:02:48",1
"18/10/24","14:20",0.0,21.9,53.9,1009.5,338.1,3.7,8.2,340.8,0.36,12.2,20.4,"14:12:16",1
"18/10/24","14:30",0.0,21.9,55.1,1009.3,341.7,3.1,6.8,344.5,0.27,12.5,20.4,"14:21:28",1
"18/10/24","14:40",0.0,21.7,53.2,1009.5,344.4,2.5,5.2,342.5,0.20,11.8,20.6,"14:32:32",1
"18/10/24","14:50",0.0,21.8,52.6,1009.7,328.9,2.6,5.4,330.4,0.29,11.7,20.4,"14:46:00",1
"18/10/24","15:00",0.0,21.5,53.1,1010.0,343.0,3.5,7.4,347.1,0.26,11.6,20.7,"14:53:28",1
"18/10/24","15:10",0.0,21.5,52.5,1009.7,347.6,2.7,5.5,357.6,0.20,11.4,20.5,"15:01:12",1
"18/10/24","15:20",0.0,21.5,53.8,1010.0,348.1,2.6,6.6,345.1,0.20,11.8,20.4,"15:19:28",1
"18/10/24","15:30",0.0,21.4,55.8,1010.0,344.1,2.5,5.5,321.0,0.19,12.3,20.3,"15:29:04",1
"18/10/24","15:40",0.0,21.2,54.8,1010.0,341.8,2.8,5.0,329.3,0.17,11.8,20.6,"15:38:56",1
"18/10/24","15:50",0.0,20.9,57.5,1009.7,339.8,3.2,7.7,354.8,0.12,12.2,20.6,"15:42:48",1
"18/10/24","16:00",0.0,20.9,56.8,1010.0,335.6,2.7,5.5,333.4,0.11,12.1,20.3,"15:53:04",1
"18/10/24","16:10",0.0,20.8,55.9,1010.0,326.5,2.8,4.2,317.8,0.09,11.7,20.4,"16:00:40",1
"18/10/24","16:20",0.0,20.6,57.1,1010.2,330.9,2.6,5.5,344.9,0.07,11.9,20.2,"16:12:16",1
"18/10/24","16:30",0.0,20.4,57.6,1010.2,326.8,2.1,3.9,320.6,0.05,11.8,20.1,"16:23:44",1
"18/10/24","16:40",0.0,20.0,59.4,1010.4,323.0,2.2,4.0,338.9,0.04,11.9,20.1,"16:33:52",1
"18/10/24","16:50",0.0,19.6,59.1,1010.7,323.5,2.8,4.8,324.9,0.02,11.4,20.1,"16:42:24",1
"18/10/24","17:00",0.0,19.2,60.4,1010.9,329.4,2.8,4.9,333.7,0.00,11.4,20.0,"16:50:32",1
"18/10/24","17:10",0.0,18.8,62.2,1010.9,329.9,2.3,3.4,322.2,0.00,11.5,19.9,"17:01:20",1
"18/10/24","17:20",0.0,18.4,63.5,1011.2,327.7,2.1,4.0,338.8,0.00,11.4,19.7,"17:12:40",1
"18/10/24","17:30",0.0,18.0,65.7,1011.2,317.9,2.0,3.2,343.6,0.00,11.5,19.6,"17:21:52",1
"18/10/24","17:40",0.0,17.6,67.8,1011.4,324.2,1.7,3.4,329.9,0.00,11.6,19.4,"17:30:56",1
"18/10/24","17:50",0.0,17.0,70.5,1011.4,309.8,1.2,2.2,325.3,0.00,11.6,19.3,"17:40:16",1
"18/10/24","18:00",0.0,16.3,73.6,1011.4,313.5,1.1,1.9,328.8,0.00,11.6,19.0,"17:56:24",1
"18/10/24","18:10",0.0,15.8,76.4,1011.9,313.0,1.0,1.8,338.0,0.00,11.7,19.1,"18:09:04",1
"18/10/24","18:20",0.0,15.2,79.5,1011.9,324.4,1.1,1.9,327.1,0.00,11.7,18.8,"18:14:00",1
"18/10/24","18:30",0.0,14.8,81.9,1011.9,333.7,1.0,1.8,327.4,0.00,11.8,19.0,"18:25:28",1
"18/10/24","18:40",0.0,14.3,83.7,1011.9,308.7,1.0,1.7,334.2,0.00,11.6,18.7,"18:31:36",1
"18/10/24","18:50",0.0,13.8,84.9,1012.1,304.0,1.1,1.4,319.9,0.00,11.3,18.6,"18:49:04",1
"18/10/24","19:00",0.0,13.5,86.9,1012.3,305.8,1.1,1.7,333.6,0.00,11.4,18.6,"18:53:54",1
"18/10/24","19:10",0.0,13.4,88.2,1012.3,292.6,1.1,1.6,324.0,0.00,11.5,18.4,"19:06:28",1
"18/10/24","19:20",0.0,13.6,88.3,1012.3,333.1,1.3,1.8,340.8,0.00,11.7,18.3,"19:11:20",1
"18/10/24","19:30",0.0,13.3,88.5,1012.6,316.8,1.3,1.9,323.0,0.00,11.5,18.1,"19:28:18",1
"18/10/24","19:40",0.0,13.1,89.2,1012.8,309.1,1.3,2.0,341.8,0.00,11.4,18.0,"19:34:40",1
"18/10/24","19:50",0.0,12.9,90.0,1013.0,299.5,1.3,1.7,305.7,0.00,11.3,17.9,"19:41:04",1
"18/10/24","20:00",0.0,13.1,90.0,1012.3,311.0,1.7,2.7,335.1,0.00,11.5,18.0,"19:56:44",1
"18/10/24","20:10",0.0,13.0,89.9,1012.3,307.4,1.6,2.7,325.5,0.00,11.4,17.9,"20:03:52",1
"18/10/24","20:20",0.0,12.9,90.0,1012.8,297.3,1.5,1.8,303.8,0.00,11.3,17.7,"20:19:28",1
"18/10/24","20:30",0.0,12.8,90.5,1012.8,292.7,1.6,3.4,320.7,0.00,11.3,17.7,"20:21:28",1
"18/10/24","20:40",0.0,12.6,90.7,1012.6,296.0,1.3,2.4,317.6,0.00,11.2,17.6,"20:36:02",1
"18/10/24","20:50",0.0,12.6,91.3,1013.0,294.5,1.6,2.7,325.4,0.00,11.3,17.4,"20:42:32",1
"18/10/24","21:00",0.0,12.4,91.1,1013.0,299.7,1.6,2.1,272.5,0.00,11.0,17.5,"20:50:18",1
"18/10/24","21:10",0.0,12.2,91.9,1013.3,305.2,1.5,2.5,326.6,0.00,11.0,17.1,"21:08:00",1
"18/10/24","21:20",0.0,12.1,92.1,1012.8,297.5,1.5,2.0,326.0,0.00,10.9,17.2,"21:19:00",1
"18/10/24","21:30",0.0,12.1,92.2,1012.8,319.7,1.7,2.4,328.1,0.00,10.9,17.2,"21:22:04",1
"18/10/24","21:40",0.0,11.9,92.8,1013.3,302.5,1.3,1.9,331.9,0.00,10.8,17.2,"21:38:34",1
"18/10/24","21:50",0.0,11.8,92.7,1013.0,297.2,1.5,2.1,315.0,0.00,10.7,17.2,"21:40:08",1
"18/10/24","22:00",0.0,11.5,92.6,1013.3,314.2,1.2,2.4,308.0,0.00,10.4,17.1,"21:59:00",1
"18/10/24","22:10",0.0,11.3,93.5,1013.0,319.4,1.6,2.5,316.9,0.00,10.3,16.8,"22:00:24",1
"18/10/24","22:20",0.0,11.2,93.9,1013.0,300.5,1.5,2.1,301.3,0.00,10.3,16.7,"22:19:24",1
"18/10/24","22:30",0.0,11.1,94.6,1013.3,311.1,1.3,2.4,328.6,0.00,10.3,16.8,"22:29:54",1
"18/10/24","22:40",0.0,11.7,94.2,1013.3,313.1,2.1,2.9,332.3,0.00,10.8,16.7,"22:38:08",1
"18/10/24","22:50",0.0,11.9,93.6,1012.8,322.3,2.2,3.3,316.0,0.00,10.9,16.6,"22:44:16",1
"18/10/24","23:00",0.0,12.2,93.0,1012.8,327.1,2.8,4.9,330.1,0.00,11.1,16.6,"22:57:50",1
"18/10/24","23:10",0.0,12.3,92.2,1013.3,328.3,2.6,3.9,318.5,0.00,11.1,16.5,"23:04:54",1
"18/10/24","23:20",0.0,12.4,91.6,1013.5,328.4,2.7,4.0,337.4,0.00,11.1,16.4,"23:18:26",1
"18/10/24","23:30",0.0,12.4,90.8,1013.0,327.5,2.6,4.4,329.3,0.00,11.0,16.4,"23:26:20",1
"18/10/24","23:40",0.0,12.3,90.2,1013.3,325.9,2.3,3.6,327.8,0.00,10.8,16.3,"23:34:52",1
"18/10/24","23:50",0.0,12.2,90.1,1013.3,331.8,2.2,3.2,347.0,0.00,10.7,16.3,"23:45:38",1
"18/10/24","24:00",0.0,12.1,90.2,1013.3,328.9,2.0,2.9,337.9,0.00,10.6,16.1,"23:56:12",1
